Weather History for Imperial, CA

Change the Weather History Date:

Tuesday, February 21, 2012

  Actual Average Record
Temperature  
Mean Temperature 14 °C -  
Max Temperature 23 °C 23 °C 32 °C (1977)
Min Temperature 6 °C 7 °C -1 °C (1953)
Degree Days  
Heating Degree Days 8    
Growing Degree Days 8 (Base 50)    
Moisture  
Dew Point -2 °C    
Average Humidity 41    
Maximum Humidity 71    
Minimum Humidity 13    
Precipitation  
Precipitation 0.00 mm - - ()
Sea Level Pressure  
Sea Level Pressure 1020 hPa    
Wind  
Wind Speed 8 km/h (West)    
Max Wind Speed 14 km/h    
Max Gust Speed -    
Visibility 16 kilometers    
Events      
Averages and records for this station are not official NWS values.
T = Trace of Precipitation, MM = Missing Value Source: NWS Daily Summary

Daily Weather History Graph

Daily Weather History Graph

Search for Another Location

Airport:

Trip Planner

Search our weather history database for the weather conditions in past years. The results will help you decide how hot, cold, wet, or windy it might be!

Date:

Astronomy

Feb. 21, 2012 Rise Set
Actual Time 6:19 AM PST 5:32 PM PST
Civil Twilight 5:54 AM PST 5:57 PM PST
Nautical Twilight 5:26 AM PST 6:26 PM PST
Astronomical Twilight 4:57 AM PST 6:55 PM PST
Moon 5:52 AM PST (2/21) 5:40 PM PST (2/21)
Length of Visible Light 12h 02m
Length of Day
11h 12m
Waning Crescent, 0% of the Moon is Illuminated
Feb 21
Waning Crescent
Feb 21
New
Feb 29
First Quarter
Mar 8
Full
Mar 14
Last Quarter

Hourly Weather History & Observations

Time (PST) Temp. Windchill Dew Point Humidity Pressure Visibility Wind Dir Wind Speed Gust Speed Precip Events Conditions
12:53 AM 8.3 °C - 3.3 °C 71% 1018.0 hPa 16.1 km WSW 5.6 km/h / 1.5 m/s - N/A   Clear
1:53 AM 8.9 °C - 1.1 °C 58% 1017.5 hPa 16.1 km WSW 9.3 km/h / 2.6 m/s - N/A   Clear
2:53 AM 6.7 °C 4.5 °C 1.7 °C 71% 1017.6 hPa 16.1 km West 11.1 km/h / 3.1 m/s - N/A   Clear
3:53 AM 6.1 °C 4.2 °C 1.1 °C 71% 1018.1 hPa 16.1 km West 9.3 km/h / 2.6 m/s - N/A   Clear
4:53 AM 6.7 °C 4.5 °C 1.1 °C 68% 1019.0 hPa 16.1 km West 11.1 km/h / 3.1 m/s - N/A   Clear
5:53 AM 6.1 °C 3.8 °C 0.6 °C 68% 1019.3 hPa 16.1 km WSW 11.1 km/h / 3.1 m/s - N/A   Clear
6:53 AM 5.6 °C 3.2 °C 0.6 °C 70% 1020.4 hPa 16.1 km West 11.1 km/h / 3.1 m/s - N/A   Clear
7:53 AM 10.0 °C - 3.9 °C 66% 1021.2 hPa 16.1 km West 5.6 km/h / 1.5 m/s - N/A   Clear
8:53 AM 16.1 °C - 2.8 °C 41% 1021.2 hPa 16.1 km West 5.6 km/h / 1.5 m/s - N/A   Clear
9:53 AM 19.4 °C - -1.1 °C 25% 1021.5 hPa 16.1 km Variable 5.6 km/h / 1.5 m/s - N/A   Clear
10:53 AM 20.6 °C - -3.3 °C 20% 1021.1 hPa 16.1 km Variable 7.4 km/h / 2.1 m/s - N/A   Clear
11:53 AM 21.7 °C - -5.6 °C 16% 1020.5 hPa 16.1 km North 13.0 km/h / 3.6 m/s - N/A   Clear
12:53 PM 22.2 °C - -6.1 °C 15% 1019.7 hPa 16.1 km Variable 7.4 km/h / 2.1 m/s - N/A   Clear
1:53 PM 23.0 °C - -6.0 °C 14% 1019.5 hPa 16.1 km North 11.1 km/h / 3.1 m/s - N/A   Clear
2:53 PM 23.3 °C - -7.2 °C 13% 1018.9 hPa 16.1 km North 9.3 km/h / 2.6 m/s - N/A   Clear
4:53 PM 21.7 °C - -3.3 °C 19% 1018.4 hPa 16.1 km NW 5.6 km/h / 1.5 m/s - N/A   Clear
5:53 PM 19.4 °C - -5.6 °C 18% 1018.4 hPa 16.1 km Calm Calm - N/A   Clear
6:53 PM 16.7 °C - -3.3 °C 25% 1018.7 hPa 16.1 km Calm Calm - N/A   Clear
7:53 PM 13.3 °C - -1.7 °C 36% 1018.9 hPa 16.1 km SW 9.3 km/h / 2.6 m/s - N/A   Clear
8:53 PM 12.2 °C - -2.2 °C 37% 1019.4 hPa 16.1 km WSW 9.3 km/h / 2.6 m/s - N/A   Clear
9:53 PM 11.1 °C - -2.8 °C 38% 1019.8 hPa 16.1 km WSW 9.3 km/h / 2.6 m/s - N/A   Clear
10:53 PM 10.0 °C - -2.2 °C 43% 1019.9 hPa 16.1 km West 11.1 km/h / 3.1 m/s - N/A   Clear
11:53 PM 11.7 °C - -5.0 °C 31% 1019.8 hPa 16.1 km WSW 14.8 km/h / 4.1 m/s - N/A   Clear